Weather History for Klawock, AK

Change the Weather History Date:

Wednesday, December 18, 2013

  Actual Average Record
Temperature  
Mean Temperature 24 °F -  
Max Temperature 28 °F 38 °F 50 °F (2004)
Min Temperature 21 °F 31 °F 19 °F (2008)
Degree Days  
Heating Degree Days 40    
Moisture  
Dew Point 21 °F    
Average Humidity 83    
Maximum Humidity 89    
Minimum Humidity 75    
Precipitation  
Precipitation 0.00 in - - ()
Sea Level Pressure  
Sea Level Pressure 30.37 in    
Wind  
Wind Speed 5 mph (NNE)    
Max Wind Speed 8 mph    
Max Gust Speed -    
Visibility 10 miles    
Events      
Averages and records for this station are not official NWS values.
T = Trace of Precipitation, MM = Missing Value Source: NWS Daily Summary

Daily Weather History Graph

Daily Weather History Graph

Search for Another Location

Airport:

Trip Planner

Search our weather history database for the weather conditions in past years. The results will help you decide how hot, cold, wet, or windy it might be!

Date:

Astronomy

Dec. 18, 2013 Rise Set
Actual Time 8:17 AM AKST 3:20 PM AKST
Civil Twilight 7:30 AM AKST 4:07 PM AKST
Nautical Twilight 6:42 AM AKST 4:55 PM AKST
Astronomical Twilight 5:57 AM AKST 5:41 PM AKST
Moon 5:16 PM AKST (12/18) 8:46 AM AKST (12/18)
Length of Visible Light 8h 36m
Length of Day
7h 03m
Full, 98% of the Moon is Illuminated
Dec 18
Full
Dec 25
Last Quarter
Jan 1
New
Jan 7
First Quarter
Jan 15
Full

Hourly Weather History & Observations

Time (AKST) Temp. Windchill Dew Point Humidity Pressure Visibility Wind Dir Wind Speed Gust Speed Precip Events Conditions
12:53 AM 28.9 °F 22.8 °F 26.1 °F 89% 30.20 in 10.0 mi North 5.8 mph - N/A   Overcast
1:53 AM 28.9 °F 22.8 °F 25.0 °F 85% 30.22 in 10.0 mi NNE 5.8 mph - N/A   Overcast
3:53 AM 25.0 °F 18.1 °F 19.9 °F 81% 30.27 in 10.0 mi NNE 5.8 mph - N/A   Clear
4:53 AM 24.1 °F 16.0 °F 19.0 °F 81% 30.29 in 10.0 mi North 6.9 mph - N/A   Clear
5:53 AM 24.1 °F 18.2 °F 19.0 °F 81% 30.31 in 10.0 mi NNE 4.6 mph - N/A   Clear
6:53 AM 24.1 °F 19.7 °F 19.9 °F 84% 30.33 in 10.0 mi Variable 3.5 mph - N/A   Clear
7:53 AM 24.1 °F 18.2 °F 19.0 °F 81% 30.35 in 10.0 mi NE 4.6 mph - N/A   Clear
8:33 AM 25.0 °F 18.1 °F 21.0 °F 85% 30.37 in 10.0 mi NNE 5.8 mph - N/A   Mostly Cloudy
8:53 AM 25.0 °F 18.1 °F 21.0 °F 85% 30.38 in 10.0 mi NNE 5.8 mph - N/A   Mostly Cloudy
9:12 AM 26.1 °F 19.4 °F 21.9 °F 84% 30.39 in 10.0 mi North 5.8 mph - N/A   Scattered Clouds
9:53 AM 27.0 °F 21.6 °F 21.9 °F 81% 30.42 in 10.0 mi NNE 4.6 mph - N/A   Clear
10:27 AM 28.0 °F 22.8 °F 21.9 °F 78% 30.41 in 10.0 mi NNE 4.6 mph - N/A   Mostly Cloudy
10:40 AM 28.0 °F 21.7 °F 21.9 °F 78% 30.41 in 10.0 mi NNE 5.8 mph - N/A   Scattered Clouds
10:53 AM 28.0 °F 21.7 °F 21.0 °F 75% 30.41 in 10.0 mi NNE 5.8 mph - N/A   Partly Cloudy
11:53 AM 28.0 °F 20.0 °F 21.9 °F 78% 30.43 in 10.0 mi NNE 8.1 mph - N/A   Clear
12:53 PM 28.0 °F 20.0 °F 21.9 °F 78% 30.43 in 10.0 mi North 8.1 mph - N/A   Clear
1:53 PM 27.0 °F 21.6 °F 21.0 °F 78% 30.42 in 10.0 mi NE 4.6 mph - N/A   Clear
2:53 PM 25.0 °F 20.7 °F 21.0 °F 85% 30.42 in 10.0 mi NE 3.5 mph - N/A   Clear
3:53 PM 24.1 °F 18.2 °F 19.9 °F 84% 30.44 in 10.0 mi NE 4.6 mph - N/A   Clear
4:53 PM 23.0 °F 17.0 °F 19.9 °F 88% 30.43 in 10.0 mi NE 4.6 mph - N/A   Clear
5:53 PM 23.0 °F 17.0 °F 19.0 °F 85% 30.41 in 10.0 mi NE 4.6 mph - N/A   Clear
6:53 PM 21.9 °F - 19.0 °F 89% 30.42 in 10.0 mi Calm Calm - N/A   Clear
7:53 PM 21.9 °F 17.2 °F 19.0 °F 89% 30.41 in 10.0 mi Variable 3.5 mph - N/A   Clear
8:53 PM 21.9 °F 17.2 °F 19.0 °F 89% 30.39 in 10.0 mi NE 3.5 mph - N/A   Clear
9:53 PM 23.0 °F 17.0 °F 19.0 °F 85% 30.36 in 10.0 mi NNE 4.6 mph - N/A   Clear
10:53 PM 24.1 °F - 19.9 °F 84% 30.37 in 10.0 mi Calm Calm - N/A   Clear
11:53 PM 24.1 °F - 21.0 °F 88% 30.34 in 10.0 mi Calm Calm - N/A   Clear